Year,Month,Day,Hour,Minute,Value (Times are PST for temperature in C)
2013,07,16,00,03,18.10
2013,07,16,00,04,17.90
2013,07,16,00,05,17.80
2013,07,16,00,06,17.80
2013,07,16,00,07,17.80
2013,07,16,00,08,17.80
2013,07,16,00,09,17.70
2013,07,16,00,10,17.70
2013,07,16,00,12,17.60
2013,07,16,00,13,17.60
2013,07,16,00,15,17.60
2013,07,16,00,17,17.50
2013,07,16,00,19,17.40
2013,07,16,00,20,17.40
2013,07,16,00,21,17.30
2013,07,16,00,22,17.30
2013,07,16,00,24,17.30
2013,07,16,00,25,17.30
2013,07,16,00,26,17.20
2013,07,16,00,27,17.20
2013,07,16,00,28,17.20
2013,07,16,00,30,17.20
2013,07,16,00,31,17.20
2013,07,16,00,32,17.10
2013,07,16,00,33,17.10
2013,07,16,00,35,17.10
2013,07,16,00,36,17.10
2013,07,16,00,37,17.10
2013,07,16,00,39,17.10
2013,07,16,00,40,17.10
2013,07,16,00,41,17.10
2013,07,16,00,42,17.10
2013,07,16,00,44,17.10
2013,07,16,00,45,17.10
2013,07,16,00,46,17.10
2013,07,16,00,47,17.00
2013,07,16,00,49,17.00
2013,07,16,00,50,16.90
2013,07,16,00,51,16.90
2013,07,16,00,52,16.90
2013,07,16,00,54,16.90
2013,07,16,00,55,16.80
2013,07,16,00,56,16.80
2013,07,16,00,57,16.80
2013,07,16,00,58,16.80
2013,07,16,00,59,16.70
2013,07,16,01,00,16.70
2013,07,16,01,01,16.70
2013,07,16,01,02,16.70
2013,07,16,01,04,16.60
2013,07,16,01,07,16.60
2013,07,16,01,09,16.60
2013,07,16,01,10,16.60
2013,07,16,01,11,16.60
2013,07,16,01,12,16.60
2013,07,16,01,13,16.60
2013,07,16,01,15,16.60
2013,07,16,01,16,16.60
2013,07,16,01,17,16.60
2013,07,16,01,19,16.60
2013,07,16,01,20,16.60
2013,07,16,01,21,16.60
2013,07,16,01,22,16.60
2013,07,16,01,24,16.60
2013,07,16,01,25,16.70
2013,07,16,01,26,16.70
2013,07,16,01,27,16.70
2013,07,16,01,28,16.80
2013,07,16,01,29,16.80
2013,07,16,01,31,16.80
2013,07,16,01,34,16.90
2013,07,16,01,35,16.90
2013,07,16,01,36,16.90
2013,07,16,01,37,17.00
2013,07,16,01,39,17.10
2013,07,16,01,40,17.10
2013,07,16,01,41,17.20
2013,07,16,01,42,17.20
2013,07,16,01,44,17.20
2013,07,16,01,45,17.20
2013,07,16,01,46,17.20
2013,07,16,01,47,17.20
2013,07,16,01,49,17.10
2013,07,16,01,50,17.00
2013,07,16,01,51,16.90
2013,07,16,01,52,16.80
2013,07,16,01,54,16.70
2013,07,16,01,55,16.60
2013,07,16,01,56,16.40
2013,07,16,01,57,16.40
2013,07,16,01,59,16.30
2013,07,16,02,00,16.30
2013,07,16,02,01,16.30
2013,07,16,02,02,16.30
2013,07,16,02,04,16.30
2013,07,16,02,05,16.40
2013,07,16,02,06,16.40
2013,07,16,02,07,16.50
2013,07,16,02,09,16.50
2013,07,16,02,10,16.60
2013,07,16,02,11,16.60
2013,07,16,02,12,16.60
2013,07,16,02,14,16.60
2013,07,16,02,15,16.60
2013,07,16,02,16,16.70
2013,07,16,02,18,16.60
2013,07,16,02,19,16.60
2013,07,16,02,20,16.60
2013,07,16,02,21,16.40
2013,07,16,02,23,16.40
2013,07,16,02,24,16.30
2013,07,16,02,25,16.30
2013,07,16,02,26,16.20
2013,07,16,02,28,16.20
2013,07,16,02,29,16.10
2013,07,16,02,30,16.10
2013,07,16,02,31,16.00
2013,07,16,02,33,16.00
2013,07,16,02,34,16.00
2013,07,16,02,35,15.90
2013,07,16,02,36,15.90
2013,07,16,02,38,15.90
2013,07,16,02,39,15.80
2013,07,16,02,40,15.80
2013,07,16,02,41,15.70
2013,07,16,02,43,15.70
2013,07,16,02,44,15.60
2013,07,16,02,45,15.60
2013,07,16,02,46,15.50
2013,07,16,02,48,15.50
2013,07,16,02,49,15.40
2013,07,16,02,50,15.50
2013,07,16,02,51,15.50
2013,07,16,02,53,15.50
2013,07,16,02,54,15.60
2013,07,16,02,55,15.60
2013,07,16,02,56,15.60
2013,07,16,02,58,15.60
2013,07,16,02,59,15.60
2013,07,16,03,00,15.60
2013,07,16,03,01,15.60
2013,07,16,03,03,15.60
2013,07,16,03,04,15.70
2013,07,16,03,05,15.70
2013,07,16,03,06,15.70
2013,07,16,03,08,15.70
2013,07,16,03,09,15.80
2013,07,16,03,10,15.80
2013,07,16,03,11,15.80
2013,07,16,03,13,15.80
2013,07,16,03,14,15.80
2013,07,16,03,15,15.90
2013,07,16,03,16,15.90
2013,07,16,03,18,15.90
2013,07,16,03,19,16.00
2013,07,16,03,20,16.00
2013,07,16,03,21,16.10
2013,07,16,03,23,16.10
2013,07,16,03,24,16.10
2013,07,16,03,25,16.10
2013,07,16,03,27,16.10
2013,07,16,03,28,16.10
2013,07,16,03,29,16.10
2013,07,16,03,30,16.10
2013,07,16,03,32,16.10
2013,07,16,03,33,16.10
2013,07,16,03,34,16.20
2013,07,16,03,35,16.20
2013,07,16,03,36,16.20
2013,07,16,03,37,16.20
2013,07,16,03,38,16.20
2013,07,16,03,39,16.20
2013,07,16,03,40,16.20
2013,07,16,03,41,16.20
2013,07,16,03,43,16.20
2013,07,16,03,44,16.30
2013,07,16,03,45,16.30
2013,07,16,03,46,16.30
2013,07,16,03,47,16.40
2013,07,16,03,49,16.40
2013,07,16,03,50,16.50
2013,07,16,03,51,16.50
2013,07,16,03,52,16.60
2013,07,16,03,54,16.60
2013,07,16,03,55,16.60
2013,07,16,03,56,16.60
2013,07,16,03,57,16.60
2013,07,16,03,59,16.50
2013,07,16,04,00,16.40
2013,07,16,04,01,16.40
2013,07,16,04,02,16.40
2013,07,16,04,03,16.40
2013,07,16,04,04,16.40
2013,07,16,04,06,16.30
2013,07,16,04,09,16.30
2013,07,16,04,10,16.20
2013,07,16,04,11,16.20
2013,07,16,04,12,16.10
2013,07,16,04,13,16.10
2013,07,16,04,15,16.10
2013,07,16,04,16,15.90
2013,07,16,04,17,15.90
2013,07,16,04,18,15.90
2013,07,16,04,20,16.00
2013,07,16,04,21,16.00
2013,07,16,04,22,16.10
2013,07,16,04,23,16.10
2013,07,16,04,25,16.10
2013,07,16,04,26,16.10
2013,07,16,04,27,16.20
2013,07,16,04,28,16.30
2013,07,16,04,29,16.30
2013,07,16,04,31,16.40
2013,07,16,04,32,16.40
2013,07,16,04,33,16.40
2013,07,16,04,34,16.50
2013,07,16,04,35,16.50
2013,07,16,04,36,16.60
2013,07,16,04,37,16.60
2013,07,16,04,39,16.70
2013,07,16,04,40,16.80
2013,07,16,04,41,16.80
2013,07,16,04,42,16.80
2013,07,16,04,43,16.90
2013,07,16,04,44,16.90
2013,07,16,04,45,16.90
2013,07,16,04,46,17.00
2013,07,16,04,48,17.00
2013,07,16,04,49,17.10
2013,07,16,04,50,17.10
2013,07,16,04,51,17.20
2013,07,16,04,53,17.20
2013,07,16,04,54,17.20
2013,07,16,04,55,17.20
2013,07,16,04,57,17.20
2013,07,16,04,58,17.20
2013,07,16,04,59,17.30
2013,07,16,05,00,17.30
2013,07,16,05,02,17.30
2013,07,16,05,03,17.40
2013,07,16,05,04,17.40
2013,07,16,05,06,17.60
2013,07,16,05,07,17.70
2013,07,16,05,08,17.70
2013,07,16,05,09,17.80
2013,07,16,05,11,17.80
2013,07,16,05,12,17.90
2013,07,16,05,13,17.90
2013,07,16,05,14,17.90
2013,07,16,05,15,17.90
2013,07,16,05,17,17.90
2013,07,16,05,18,18.10
2013,07,16,05,19,18.10
2013,07,16,05,20,18.20
2013,07,16,05,22,18.20
2013,07,16,05,23,18.20
2013,07,16,05,24,18.20
2013,07,16,05,25,18.20
2013,07,16,05,27,18.20
2013,07,16,05,28,18.20
2013,07,16,05,29,18.10
2013,07,16,05,31,18.10
2013,07,16,05,32,18.00
2013,07,16,05,33,18.00
2013,07,16,05,34,18.00
2013,07,16,05,35,17.90
2013,07,16,05,36,17.90
2013,07,16,05,37,17.90
2013,07,16,05,38,17.90
2013,07,16,05,39,17.90
2013,07,16,05,40,17.80
2013,07,16,05,41,17.80
2013,07,16,05,42,17.80
2013,07,16,05,44,17.80
2013,07,16,05,45,17.70
2013,07,16,05,46,17.70
2013,07,16,05,47,17.70
2013,07,16,05,48,17.70
2013,07,16,05,49,17.60
2013,07,16,05,50,17.60
2013,07,16,05,51,17.60
2013,07,16,05,53,17.60
2013,07,16,05,54,17.60
2013,07,16,05,55,17.60
2013,07,16,05,56,17.60
2013,07,16,05,57,17.60
2013,07,16,05,58,17.60
2013,07,16,05,59,17.60
2013,07,16,06,00,17.50
2013,07,16,06,02,17.40
2013,07,16,06,03,17.40
2013,07,16,06,04,17.40
2013,07,16,06,05,17.40
2013,07,16,06,07,17.30
2013,07,16,06,08,17.40
2013,07,16,06,09,17.40
2013,07,16,06,10,17.40
2013,07,16,06,11,17.40
2013,07,16,06,12,17.40
2013,07,16,06,13,17.40
2013,07,16,06,14,17.50
2013,07,16,06,15,17.50
2013,07,16,06,16,17.60
2013,07,16,06,17,17.60
2013,07,16,06,18,17.70
2013,07,16,06,19,17.80
2013,07,16,06,20,17.80
2013,07,16,06,21,17.80
2013,07,16,06,22,17.90
2013,07,16,06,23,17.90
2013,07,16,06,24,17.90
2013,07,16,06,26,17.90
2013,07,16,06,27,17.90
2013,07,16,06,28,17.80
2013,07,16,06,29,17.80
2013,07,16,06,31,17.80
2013,07,16,06,32,17.80
2013,07,16,06,33,17.80
2013,07,16,06,34,17.80
2013,07,16,06,36,17.80
2013,07,16,06,37,17.90
2013,07,16,06,38,17.90
2013,07,16,06,39,17.90
2013,07,16,06,41,18.00
2013,07,16,06,42,18.10
2013,07,16,06,43,18.10
2013,07,16,06,44,18.10
2013,07,16,06,45,18.10
2013,07,16,06,47,18.20
2013,07,16,06,48,18.20
2013,07,16,06,49,18.30
2013,07,16,06,51,18.30
2013,07,16,06,52,18.30
2013,07,16,06,53,18.30
2013,07,16,06,54,18.40
2013,07,16,06,56,18.40
2013,07,16,06,57,18.50
2013,07,16,06,59,18.60
2013,07,16,07,00,18.60
2013,07,16,07,01,18.60
2013,07,16,07,02,18.60
2013,07,16,07,03,18.70
2013,07,16,07,04,18.70
2013,07,16,07,05,18.70
2013,07,16,07,06,18.70
2013,07,16,07,07,18.70
2013,07,16,07,09,18.80
2013,07,16,07,10,18.80
2013,07,16,07,11,18.80
2013,07,16,07,12,18.80
2013,07,16,07,14,18.90
2013,07,16,07,15,18.90
2013,07,16,07,16,18.90
2013,07,16,07,17,18.90
2013,07,16,07,19,18.90
2013,07,16,07,20,18.90
2013,07,16,07,21,18.90
2013,07,16,07,22,19.00
2013,07,16,07,23,19.00
2013,07,16,07,25,19.00
2013,07,16,07,26,19.10
2013,07,16,07,27,19.10
2013,07,16,07,28,19.10
2013,07,16,07,30,19.10
2013,07,16,07,31,19.20
2013,07,16,07,32,19.20
2013,07,16,07,33,19.20
2013,07,16,07,35,19.20
2013,07,16,07,36,19.20
2013,07,16,07,37,19.30
2013,07,16,07,38,19.30
2013,07,16,07,40,19.30
2013,07,16,07,41,19.30
2013,07,16,07,42,19.30
2013,07,16,07,43,19.30
2013,07,16,07,45,19.30
2013,07,16,07,46,19.30
2013,07,16,07,47,19.40
2013,07,16,07,48,19.40
2013,07,16,07,49,19.40
2013,07,16,07,51,19.40
2013,07,16,07,52,19.40
2013,07,16,07,53,19.50
2013,07,16,07,54,19.50
2013,07,16,07,55,19.60
2013,07,16,07,57,19.60
2013,07,16,07,58,19.60
2013,07,16,07,59,19.60
2013,07,16,08,00,19.70
2013,07,16,08,02,19.70
2013,07,16,08,03,19.70
2013,07,16,08,04,19.80
2013,07,16,08,05,19.80
2013,07,16,08,07,19.80
2013,07,16,08,08,19.80
2013,07,16,08,09,19.90
2013,07,16,08,10,19.90
2013,07,16,08,12,19.90
2013,07,16,08,13,19.90
2013,07,16,08,14,19.90
2013,07,16,08,15,20.00
2013,07,16,08,17,20.10
2013,07,16,08,18,20.10
2013,07,16,08,19,20.10
2013,07,16,08,20,20.20
2013,07,16,08,22,20.20
2013,07,16,08,23,20.20
2013,07,16,08,24,20.20
2013,07,16,08,25,20.20
2013,07,16,08,26,20.20
2013,07,16,08,28,20.20
2013,07,16,08,29,20.20
2013,07,16,08,30,20.30
2013,07,16,08,31,20.30
2013,07,16,08,32,20.30
2013,07,16,08,33,20.30
2013,07,16,08,34,20.30
2013,07,16,08,35,20.40
2013,07,16,08,36,20.40
2013,07,16,08,37,20.40
2013,07,16,08,38,20.40
2013,07,16,08,39,20.50
2013,07,16,08,40,20.50
2013,07,16,08,41,20.50
2013,07,16,08,42,20.60
2013,07,16,08,43,20.60
2013,07,16,08,44,20.60
2013,07,16,08,45,20.60
2013,07,16,08,46,20.60
2013,07,16,08,47,20.70
2013,07,16,08,48,20.70
2013,07,16,08,49,20.70
2013,07,16,08,50,20.70
2013,07,16,08,51,20.70
2013,07,16,08,52,20.70
2013,07,16,08,53,20.70
2013,07,16,08,54,20.70
2013,07,16,08,55,20.70
2013,07,16,08,56,20.80
2013,07,16,08,57,20.80
2013,07,16,08,58,20.80
2013,07,16,08,59,20.80
2013,07,16,09,00,20.90
2013,07,16,09,01,20.90
2013,07,16,09,02,21.10
2013,07,16,09,04,21.10
2013,07,16,09,05,21.20
2013,07,16,09,06,21.20
2013,07,16,09,07,21.30
2013,07,16,09,08,21.30
2013,07,16,09,09,21.30
2013,07,16,09,10,21.40
2013,07,16,09,12,21.40
2013,07,16,09,13,21.40
2013,07,16,09,14,21.50
2013,07,16,09,15,21.60
2013,07,16,09,16,21.60
2013,07,16,09,17,21.60
2013,07,16,09,18,21.70
2013,07,16,09,19,21.70
2013,07,16,09,20,21.70
2013,07,16,09,21,21.70
2013,07,16,09,22,21.70
2013,07,16,09,23,21.70
2013,07,16,09,24,21.70
2013,07,16,09,26,21.70
2013,07,16,09,27,21.70
2013,07,16,09,28,21.70
2013,07,16,09,29,21.70
2013,07,16,09,30,21.70
2013,07,16,09,31,21.70
2013,07,16,09,32,21.70
2013,07,16,09,33,21.70
2013,07,16,09,34,21.70
2013,07,16,09,35,21.70
2013,07,16,09,36,21.70
2013,07,16,09,37,21.70
2013,07,16,09,38,21.70
2013,07,16,09,39,21.80
2013,07,16,09,40,21.80
2013,07,16,09,41,21.80
2013,07,16,09,42,21.80
2013,07,16,09,43,21.90
2013,07,16,09,44,21.90
2013,07,16,09,46,21.90
2013,07,16,09,47,22.00
2013,07,16,09,48,22.10
2013,07,16,09,49,22.20
2013,07,16,09,50,22.20
2013,07,16,09,51,22.20
2013,07,16,09,52,22.20
2013,07,16,09,53,22.20
2013,07,16,09,55,22.20
2013,07,16,09,56,22.20
2013,07,16,09,57,22.30
2013,07,16,09,58,22.30
2013,07,16,09,59,22.30
2013,07,16,10,00,22.40
2013,07,16,10,01,22.40
2013,07,16,10,02,22.50
2013,07,16,10,03,22.60
2013,07,16,10,04,22.70
2013,07,16,10,06,22.70
2013,07,16,10,07,22.80
2013,07,16,10,08,22.80
2013,07,16,10,09,22.90
2013,07,16,10,10,22.90
2013,07,16,10,11,22.90
2013,07,16,10,12,22.90
2013,07,16,10,13,22.90
2013,07,16,10,14,23.00
2013,07,16,10,15,23.10
2013,07,16,10,16,23.10
2013,07,16,10,17,23.20
2013,07,16,10,18,23.20
2013,07,16,10,19,23.20
2013,07,16,10,20,23.20
2013,07,16,10,21,23.30
2013,07,16,10,22,23.40
2013,07,16,10,23,23.40
2013,07,16,10,24,23.50
2013,07,16,10,25,23.60
2013,07,16,10,26,23.70
2013,07,16,10,27,23.70
2013,07,16,10,28,23.70
2013,07,16,10,29,23.70
2013,07,16,10,31,23.80
2013,07,16,10,32,23.80
2013,07,16,10,33,23.80
2013,07,16,10,34,23.80
2013,07,16,10,35,23.80
2013,07,16,10,36,23.80
2013,07,16,10,37,23.80
2013,07,16,10,39,23.90
2013,07,16,10,40,23.90
2013,07,16,10,41,24.10
2013,07,16,10,43,24.10
2013,07,16,10,44,24.20
2013,07,16,10,45,24.30
2013,07,16,10,46,24.40
2013,07,16,10,48,24.40
2013,07,16,10,49,24.60
2013,07,16,10,50,24.60
2013,07,16,10,51,24.60
2013,07,16,10,53,24.60
2013,07,16,10,54,24.60
2013,07,16,10,55,24.70
2013,07,16,10,56,24.70
2013,07,16,10,57,24.70
2013,07,16,10,59,24.70
2013,07,16,11,00,24.60
2013,07,16,11,01,24.60
2013,07,16,11,02,24.60
2013,07,16,11,03,24.70
2013,07,16,11,05,24.70
2013,07,16,11,06,24.80
2013,07,16,11,07,24.80
2013,07,16,11,08,24.90
2013,07,16,11,10,24.90
2013,07,16,11,11,25.00
2013,07,16,11,12,25.10
2013,07,16,11,13,25.20
2013,07,16,11,15,25.20
2013,07,16,11,16,25.20
2013,07,16,11,17,25.30
2013,07,16,11,18,25.40
2013,07,16,11,20,25.50
2013,07,16,11,21,25.50
2013,07,16,11,22,25.50
2013,07,16,11,23,25.50
2013,07,16,11,24,25.50
2013,07,16,11,26,25.50
2013,07,16,11,27,25.60
2013,07,16,11,29,25.60
2013,07,16,11,30,25.60
2013,07,16,11,31,25.60
2013,07,16,11,32,25.60
2013,07,16,11,33,25.60
2013,07,16,11,34,25.60
2013,07,16,11,35,25.60
2013,07,16,11,36,25.60
2013,07,16,11,37,25.70
2013,07,16,11,38,25.70
2013,07,16,11,39,25.70
2013,07,16,11,40,25.70
2013,07,16,11,41,25.70
2013,07,16,11,42,25.70
2013,07,16,11,43,25.70
2013,07,16,11,44,25.70
2013,07,16,11,45,25.70
2013,07,16,11,46,25.70
2013,07,16,11,47,25.70
2013,07,16,11,48,25.70
2013,07,16,11,49,25.70
2013,07,16,11,50,25.70
2013,07,16,11,51,25.80
2013,07,16,11,52,25.80
2013,07,16,11,53,25.80
2013,07,16,11,54,25.90
2013,07,16,11,55,25.90
2013,07,16,11,56,26.00
2013,07,16,11,58,26.10
2013,07,16,11,59,26.20
2013,07,16,12,00,26.30
2013,07,16,12,01,26.30
2013,07,16,12,02,26.40
2013,07,16,12,03,26.40
2013,07,16,12,04,26.40
2013,07,16,12,05,26.30
2013,07,16,12,06,26.30
2013,07,16,12,07,26.30
2013,07,16,12,08,26.20
2013,07,16,12,09,26.20
2013,07,16,12,10,26.10
2013,07,16,12,11,26.10
2013,07,16,12,12,26.00
2013,07,16,12,13,26.00
2013,07,16,12,14,26.00
2013,07,16,12,15,26.00
2013,07,16,12,16,26.00
2013,07,16,12,17,26.00
2013,07,16,12,18,26.00
2013,07,16,12,19,25.90
2013,07,16,12,20,25.90
2013,07,16,12,21,26.00
2013,07,16,12,22,26.00
2013,07,16,12,23,26.10
2013,07,16,12,24,26.10
2013,07,16,12,25,26.10
2013,07,16,12,26,26.20
2013,07,16,12,27,26.20
2013,07,16,12,28,26.20
2013,07,16,12,29,26.30
2013,07,16,12,30,26.40
2013,07,16,12,31,26.40
2013,07,16,12,33,26.50
2013,07,16,12,34,26.50
2013,07,16,12,35,26.50
2013,07,16,12,36,26.50
2013,07,16,12,37,26.50
2013,07,16,12,39,26.50
2013,07,16,12,40,26.40
2013,07,16,12,41,26.40
2013,07,16,12,42,26.50
2013,07,16,12,44,26.50
2013,07,16,12,45,26.60
2013,07,16,12,46,26.60
2013,07,16,12,48,26.60
2013,07,16,12,49,26.50
2013,07,16,12,50,26.40
2013,07,16,12,52,26.40
2013,07,16,12,53,26.40
2013,07,16,12,54,26.40
2013,07,16,12,55,26.60
2013,07,16,12,56,26.60
2013,07,16,12,57,26.70
2013,07,16,12,58,26.70
2013,07,16,12,59,26.70
2013,07,16,13,01,26.80
2013,07,16,13,02,26.80
2013,07,16,13,03,26.90
2013,07,16,13,04,26.90
2013,07,16,13,06,26.90
2013,07,16,13,07,26.80
2013,07,16,13,08,26.80
2013,07,16,13,09,26.80
2013,07,16,13,11,26.80
2013,07,16,13,12,26.90
2013,07,16,13,13,26.80
2013,07,16,13,14,26.80
2013,07,16,13,16,26.80
2013,07,16,13,17,26.80
2013,07,16,13,18,26.80
2013,07,16,13,20,26.80
2013,07,16,13,21,26.80
2013,07,16,13,22,26.80
2013,07,16,13,23,26.80
2013,07,16,13,25,26.80
2013,07,16,13,26,26.80
2013,07,16,13,27,26.90
2013,07,16,13,29,26.80
2013,07,16,13,30,26.80
2013,07,16,13,31,26.80
2013,07,16,13,32,26.80
2013,07,16,13,34,26.80
2013,07,16,13,35,26.80
2013,07,16,13,36,26.80
2013,07,16,13,37,26.80
2013,07,16,13,38,26.80
2013,07,16,13,39,26.70
2013,07,16,13,40,26.70
2013,07,16,13,41,26.70
2013,07,16,13,43,26.70
2013,07,16,13,44,26.70
2013,07,16,13,45,26.70
2013,07,16,13,46,26.70
2013,07,16,13,47,26.70
2013,07,16,13,48,26.70
2013,07,16,13,49,26.70
2013,07,16,13,50,26.80
2013,07,16,13,51,26.80
2013,07,16,13,52,26.90
2013,07,16,13,54,27.10
2013,07,16,13,55,27.10
2013,07,16,13,56,27.20
2013,07,16,13,57,27.20
2013,07,16,13,58,27.20
2013,07,16,13,59,27.20
2013,07,16,14,00,27.20
2013,07,16,14,01,27.20
2013,07,16,14,02,27.20
2013,07,16,14,03,27.20
2013,07,16,14,04,27.20
2013,07,16,14,05,27.20
2013,07,16,14,06,27.20
2013,07,16,14,07,27.20
2013,07,16,14,08,27.20
2013,07,16,14,09,27.20
2013,07,16,14,10,27.20
2013,07,16,14,11,27.30
2013,07,16,14,12,27.30
2013,07,16,14,13,27.30
2013,07,16,14,14,27.30
2013,07,16,14,15,27.30
2013,07,16,14,17,27.20
2013,07,16,14,18,27.20
2013,07,16,14,19,27.20
2013,07,16,14,20,27.20
2013,07,16,14,22,27.10
2013,07,16,14,23,27.10
2013,07,16,14,24,27.10
2013,07,16,14,26,27.10
2013,07,16,14,27,27.20
2013,07,16,14,28,27.10
2013,07,16,14,29,27.10
2013,07,16,14,30,27.00
2013,07,16,14,31,27.00
2013,07,16,14,33,27.00
2013,07,16,14,34,27.10
2013,07,16,14,35,27.10
2013,07,16,14,36,27.10
2013,07,16,14,37,27.10
2013,07,16,14,38,27.10
2013,07,16,14,39,27.10
2013,07,16,14,40,27.10
2013,07,16,14,41,27.10
2013,07,16,14,42,27.10
2013,07,16,14,43,27.10
2013,07,16,14,44,27.10
2013,07,16,14,45,27.10
2013,07,16,14,46,27.10
2013,07,16,14,47,27.20
2013,07,16,14,48,27.20
2013,07,16,14,49,27.20
2013,07,16,14,50,27.20
2013,07,16,14,51,27.20
2013,07,16,14,53,27.10
2013,07,16,14,54,27.10
2013,07,16,14,55,27.00
2013,07,16,14,57,26.90
2013,07,16,14,58,26.90
2013,07,16,14,59,26.90
2013,07,16,15,00,26.80
2013,07,16,15,01,26.80
2013,07,16,15,02,26.80
2013,07,16,15,03,26.80
2013,07,16,15,04,26.80
2013,07,16,15,05,26.80
2013,07,16,15,07,26.80
2013,07,16,15,08,26.80
2013,07,16,15,09,26.80
2013,07,16,15,10,26.80
2013,07,16,15,11,26.70
2013,07,16,15,12,26.70
2013,07,16,15,13,26.70
2013,07,16,15,14,26.70
2013,07,16,15,15,26.70
2013,07,16,15,16,26.70
2013,07,16,15,17,26.70
2013,07,16,15,18,26.80
2013,07,16,15,19,26.80
2013,07,16,15,20,26.80
2013,07,16,15,21,26.90
2013,07,16,15,22,26.90
2013,07,16,15,23,27.10
2013,07,16,15,24,27.20
2013,07,16,15,25,27.30
2013,07,16,15,27,27.30
2013,07,16,15,28,27.50
2013,07,16,15,29,27.60
2013,07,16,15,30,27.60
2013,07,16,15,32,27.70
2013,07,16,15,33,27.80
2013,07,16,15,34,27.80
2013,07,16,15,35,27.90
2013,07,16,15,36,27.90
2013,07,16,15,37,28.00
2013,07,16,15,38,28.10
2013,07,16,15,39,28.10
2013,07,16,15,41,28.20
2013,07,16,15,42,28.20
2013,07,16,15,43,28.40
2013,07,16,15,44,28.40
2013,07,16,15,45,28.50
2013,07,16,15,46,28.60
2013,07,16,15,47,28.60
2013,07,16,15,48,28.70
2013,07,16,15,50,28.70
2013,07,16,15,51,28.80
2013,07,16,15,52,28.90
2013,07,16,15,53,28.90
2013,07,16,15,55,29.10
2013,07,16,15,56,29.10
2013,07,16,15,58,28.90
2013,07,16,16,00,28.80
2013,07,16,16,01,28.80
2013,07,16,16,02,28.80
2013,07,16,16,03,28.90
2013,07,16,16,04,28.90
2013,07,16,16,06,28.90
2013,07,16,16,07,29.00
2013,07,16,16,08,29.10
2013,07,16,16,10,29.10
2013,07,16,16,11,29.00
2013,07,16,16,13,28.90
2013,07,16,16,14,28.90
2013,07,16,16,15,28.90
2013,07,16,16,16,28.90
2013,07,16,16,17,28.90
2013,07,16,16,18,28.90
2013,07,16,16,22,28.80
2013,07,16,16,25,28.70
2013,07,16,16,26,28.70
2013,07,16,16,27,28.60
2013,07,16,16,28,28.50
2013,07,16,16,30,28.50
2013,07,16,16,31,28.40
2013,07,16,16,32,28.40
2013,07,16,16,33,28.30
2013,07,16,16,35,28.30
2013,07,16,16,36,28.20
2013,07,16,16,37,28.20
2013,07,16,16,38,28.20
2013,07,16,16,39,28.20
2013,07,16,16,40,28.20
2013,07,16,16,41,28.20
2013,07,16,16,42,28.10
2013,07,16,16,43,28.10
2013,07,16,16,44,28.00
2013,07,16,16,45,27.90
2013,07,16,16,46,27.90
2013,07,16,16,47,27.80
2013,07,16,16,48,27.80
2013,07,16,16,50,27.80
2013,07,16,16,51,27.70
2013,07,16,16,52,27.70
2013,07,16,16,53,27.70
2013,07,16,16,54,27.70
2013,07,16,16,55,27.70
2013,07,16,16,56,27.70
2013,07,16,16,57,27.60
2013,07,16,16,58,27.60
2013,07,16,16,59,27.60
2013,07,16,17,00,27.50
2013,07,16,17,01,27.40
2013,07,16,17,02,27.40
2013,07,16,17,03,27.40
2013,07,16,17,04,27.40
2013,07,16,17,05,27.40
2013,07,16,17,07,27.40
2013,07,16,17,08,27.30
2013,07,16,17,09,27.30
2013,07,16,17,10,27.20
2013,07,16,17,11,27.10
2013,07,16,17,12,27.10
2013,07,16,17,13,27.00
2013,07,16,17,14,26.90
2013,07,16,17,16,26.80
2013,07,16,17,18,26.70
2013,07,16,17,19,26.60
2013,07,16,17,21,26.60
2013,07,16,17,22,26.50
2013,07,16,17,23,26.50
2013,07,16,17,24,26.40
2013,07,16,17,26,26.40
2013,07,16,17,27,26.40
2013,07,16,17,28,26.40
2013,07,16,17,29,26.40
2013,07,16,17,31,26.40
2013,07,16,17,32,26.50
2013,07,16,17,33,26.50
2013,07,16,17,34,26.50
2013,07,16,17,35,26.50
2013,07,16,17,36,26.50
2013,07,16,17,37,26.50
2013,07,16,17,38,26.50
2013,07,16,17,39,26.40
2013,07,16,17,40,26.40
2013,07,16,17,41,26.20
2013,07,16,17,42,26.00
2013,07,16,17,43,25.80
2013,07,16,17,44,25.70
2013,07,16,17,45,25.60
2013,07,16,17,46,25.40
2013,07,16,17,47,25.30
2013,07,16,17,48,25.20
2013,07,16,17,49,25.10
2013,07,16,17,50,24.90
2013,07,16,17,51,24.70
2013,07,16,17,52,24.60
2013,07,16,17,53,24.40
2013,07,16,17,54,24.40
2013,07,16,17,55,24.30
2013,07,16,17,56,24.20
2013,07,16,17,57,24.20
2013,07,16,17,58,24.20
2013,07,16,17,59,24.10
2013,07,16,18,00,24.10
2013,07,16,18,01,24.10
2013,07,16,18,02,24.00
2013,07,16,18,03,24.00
2013,07,16,18,04,24.00
2013,07,16,18,05,23.90
2013,07,16,18,06,23.90
2013,07,16,18,07,23.90
2013,07,16,18,08,23.90
2013,07,16,18,09,23.90
2013,07,16,18,10,23.90
2013,07,16,18,12,23.90
2013,07,16,18,13,23.90
2013,07,16,18,14,23.80
2013,07,16,18,15,23.80
2013,07,16,18,16,23.80
2013,07,16,18,17,23.80
2013,07,16,18,18,23.80
2013,07,16,18,19,23.80
2013,07,16,18,20,23.80
2013,07,16,18,21,23.80
2013,07,16,18,22,23.80
2013,07,16,18,23,23.80
2013,07,16,18,24,23.80
2013,07,16,18,25,23.80
2013,07,16,18,27,23.80
2013,07,16,18,28,23.80
2013,07,16,18,29,23.80
2013,07,16,18,30,23.90
2013,07,16,18,32,23.90
2013,07,16,18,33,23.90
2013,07,16,18,34,24.00
2013,07,16,18,35,24.10
2013,07,16,18,37,24.10
2013,07,16,18,38,24.10
2013,07,16,18,39,24.20
2013,07,16,18,40,24.10
2013,07,16,18,41,24.20
2013,07,16,18,42,24.10
2013,07,16,18,43,24.10
2013,07,16,18,45,24.10
2013,07,16,18,46,24.10
2013,07,16,18,47,24.10
2013,07,16,18,48,24.10
2013,07,16,18,49,24.10
2013,07,16,18,50,24.10
2013,07,16,18,51,24.10
2013,07,16,18,53,24.00
2013,07,16,18,54,24.00
2013,07,16,18,55,23.90
2013,07,16,18,56,23.90
2013,07,16,18,58,23.80
2013,07,16,18,59,23.80
2013,07,16,19,00,23.80
2013,07,16,19,01,23.80
2013,07,16,19,02,23.80
2013,07,16,19,04,23.80
2013,07,16,19,05,23.80
2013,07,16,19,06,23.80
2013,07,16,19,07,23.80
2013,07,16,19,08,23.80
2013,07,16,19,10,23.80
2013,07,16,19,11,23.80
2013,07,16,19,12,23.90
2013,07,16,19,13,23.90
2013,07,16,19,15,23.90
2013,07,16,19,16,23.90
2013,07,16,19,17,23.90
2013,07,16,19,18,23.90
2013,07,16,19,20,23.90
2013,07,16,19,21,23.90
2013,07,16,19,22,24.00
2013,07,16,19,23,24.00
2013,07,16,19,24,24.00
2013,07,16,19,26,24.00
2013,07,16,19,27,24.00
2013,07,16,19,28,24.00
2013,07,16,19,29,24.00
2013,07,16,19,30,24.00
2013,07,16,19,32,24.00
2013,07,16,19,33,24.10
2013,07,16,19,34,24.10
2013,07,16,19,36,24.10
2013,07,16,19,37,24.10
2013,07,16,19,38,24.10
2013,07,16,19,39,24.10
2013,07,16,19,41,24.10
2013,07,16,19,42,24.10
2013,07,16,19,43,24.10
2013,07,16,19,45,24.10
2013,07,16,19,46,24.10
2013,07,16,19,47,24.10
2013,07,16,19,48,24.20
2013,07,16,19,50,24.20
2013,07,16,19,51,24.20
2013,07,16,19,52,24.20
2013,07,16,19,53,24.20
2013,07,16,19,55,24.30
2013,07,16,19,56,24.30
2013,07,16,19,57,24.30
2013,07,16,19,58,24.30
2013,07,16,19,59,24.30
2013,07,16,20,01,24.30
2013,07,16,20,02,24.30
2013,07,16,20,03,24.30
2013,07,16,20,04,24.30
2013,07,16,20,06,24.30
2013,07,16,20,07,24.30
2013,07,16,20,08,24.30
2013,07,16,20,09,24.30
2013,07,16,20,10,24.30
2013,07,16,20,12,24.30
2013,07,16,20,13,24.30
2013,07,16,20,14,24.30
2013,07,16,20,15,24.30
2013,07,16,20,16,24.30
2013,07,16,20,18,24.30
2013,07,16,20,19,24.40
2013,07,16,20,20,24.40
2013,07,16,20,21,24.50
2013,07,16,20,23,24.60
2013,07,16,20,24,24.60
2013,07,16,20,25,24.70